Location: Thunder Bay Observatory
(48.2803°N, 89.5372°W)
Time: 14:18:32
(UTC-04:00)

Tiangong 2 - Visible Passes

Search period start: 15 July 2019 00:00
Search period end: 25 July 2019 00:00
Orbit: 378 x 386 km, 42.8° (Epoch: 15 July)

Date Brightness Start Highest point End Pass type
(mag) Time Alt. Az. Time Alt. Az. Time Alt. Az.
15 Jul 3.8 00:46:46 10° WSW 00:46:48 10° WSW 00:46:48 10° WSW visible
15 Jul 2.3 23:46:19 10° WSW 23:48:55 24° SSW 23:49:02 24° S visible
16 Jul 2.2 22:46:00 10° WSW 22:48:44 28° S 22:51:13 11° SE visible
17 Jul 3.7 00:23:07 10° WSW 00:23:22 11° SW 00:23:22 11° SW visible
17 Jul 2.7 23:22:25 10° WSW 23:24:43 19° SSW 23:25:33 17° S visible
19 Jul 3.3 22:58:43 10° WSW 23:00:29 14° SSW 23:02:03 11° S visible
